WHITEHORSE, YK current weather conditions

sailwx.info

Wind from 180 at 9 knots

Air temperature -6.0° C
Visibility: greater than 13.0 NM
Dewpoint -8.0° C

Last reported at 2014-Oct-02 13:00 UTC.
Time now 2014-Oct-02 14:41 UTC

Location: N 60°43' W 135°04'.
View on Google Maps.

See reports from other nearby stations

  
Tides and Currents Weather Stations Pressure Air Temp Water Temp Dewpoint Dewpoint Depression Visibility Wind Speed Wind Dir Waves Ship Positions
date/time (UTC)wind fromknots sea level pressurealtimeterstation pressurevisibilityair tempwater tempwave heightnotes
2014-Oct-02 13:00 180 9 13.0-6.0
2014-Oct-02 12:00 140 5 13.0-6.0
2014-Oct-02 11:00 150 3 13.0-7.0
2014-Oct-02 10:00 160 5 13.0-6.0
2014-Oct-02 09:00 180 5 13.0-6.0
2014-Oct-02 08:00 13.0-6.0
2014-Oct-02 07:00 200 2 13.0-6.0
2014-Oct-02 06:00 13.0-4.0
2014-Oct-02 05:00 13.0-3.0
2014-Oct-02 04:00 240 5 13.0-3.0
2014-Oct-02 03:00 250 4 34.8-2.0
2014-Oct-02 02:00 300 3 34.8 1.0
2014-Oct-02 01:00 300 2 34.8 1.0
2014-Oct-02 00:00 350 4 34.8 2.0
2014-Oct-01 23:00 350 6 34.8 1.0
2014-Oct-01 22:00 010 6 34.8 1.0
2014-Oct-01 21:00 010 6 34.8 1.0
2014-Oct-01 20:00 340 7 34.8 1.0
2014-Oct-01 19:00 350 7 34.8-0.0 Light snow.
2014-Oct-01 18:00 350 8 34.8-1.0
2014-Oct-01 17:00 310 7 34.8-1.0 Light snow.
2014-Oct-01 16:00 340 8 34.8-2.0
2014-Oct-01 15:00 340 10 34.8-2.0
2014-Oct-01 14:00 310 10 gusting 16 26.1-1.0
2014-Oct-01 13:00 300 13 8.7-1.0
2014-Oct-01 12:00 290 19 gusting 24 8.7-1.0
2014-Oct-01 11:09 300 18 gusting 23 8.7-1.0
2014-Oct-01 11:00 300 17 gusting 22 5.2-1.0 Blowing snow.
2014-Oct-01 10:00 300 17 gusting 24 5.2-0.0 Blowing snow.
2014-Oct-01 09:00 290 18 gusting 24 8.7-0.0
2014-Oct-01 08:00 300 14 8.7-0.0
2014-Oct-01 07:00 300 18 8.7-1.0
2014-Oct-01 06:49 300 15 gusting 22 8.7-1.0
2014-Oct-01 06:00 290 17 gusting 26 8.7-1.0 Light snow.
2014-Oct-01 05:00 300 16 gusting 20 8.7-1.0 Light snow.
2014-Oct-01 04:00 300 16 gusting 25 8.7-1.0
2014-Oct-01 03:00 290 16 8.7-1.0
2014-Oct-01 02:00 290 17 8.7-1.0
2014-Oct-01 01:49 290 18 gusting 24 8.7-1.0
2014-Oct-01 01:10 300 19 gusting 27 4.3-1.0 Light snow.
2014-Oct-01 01:00 300 18 gusting 26 2.2-1.0 Light snow.
2014-Oct-01 00:00 300 19 gusting 26 1.7-1.0 Light snow.
2014-Sep-30 23:00 310 17 gusting 23 1.7-1.0 Light snow.
2014-Sep-30 22:19 310 15 gusting 26 1.3-0.0 Light snow.
2014-Sep-30 22:00 300 17 gusting 25 0.9-0.0 Light snow.
2014-Sep-30 21:00 300 15 gusting 24 0.9-0.0 Light snow.
2014-Sep-30 20:12 300 17 gusting 24 0.9-0.0 Light snow.
2014-Sep-30 20:00 310 18 gusting 24 1.3-0.0 Light snow.
2014-Sep-30 19:49 300 18 gusting 25 1.7-0.0 Light snow.
2014-Sep-30 19:04 320 8 gusting 15 3.5-0.0 Light snow.
2014-Sep-30 19:00 330 10 2.2-0.0 Light snow.
2014-Sep-30 18:31 350 6 0.9-1.0
2014-Sep-30 18:00 340 7 0.4-1.0 Light snow.
2014-Sep-30 17:47 340 10 gusting 16 0.5-1.0 Light snow.
2014-Sep-30 17:10 350 12 gusting 18 0.3-1.0 Snow.
2014-Sep-30 17:00 340 13 gusting 19 0.1-1.0 Heavy snow.
2014-Sep-30 16:48 350 12 gusting 17 0.1-1.0 Heavy snow.
2014-Sep-30 16:43 340 9 gusting 16 0.2-0.0 Heavy snow.
2014-Sep-30 16:30 340 9 gusting 15 2.6-0.0 Snow.
2014-Sep-30 16:16 350 9 0.4-0.0 Light snow.
2014-Sep-30 16:00 360 7 0.3-0.0 Snow.
2014-Sep-30 14:12 340 9 2.6 2.0 Light rain.
2014-Sep-30 14:00 350 9 2.6 3.0 Light rain.